Terug naar catalogus

T-MICROSAT-1

ActiefWetenschapSSO
NORAD 66766·PAYLOAD·🇹🇼 Taiwan

Gelanceerd Nov 28, 2025 vanaf Vandenberg Space Force Base

Loading…

Volgende Passages (komende 24 uur)

TLE

VersSource: Space-Track

Epoch: Sep 13, 2026, 22:36 UTC

1 66766U 25276DE  26256.94225987  .00004948  00000-0  22216-3 0  9991
2 66766  97.4088 329.2967 0001265 115.0293 245.1075 15.21624346 43939

Volg T-MICROSAT-1 in realtime met AllMySat

Download on the App Store